DELTA 1 DEB, 10873

Orbit data source: Space-Track

DELTA 1 DEB, 10873 is space debris in SSO originally from a launch on Thu, 29 Jul 1976 UTC launched from the Air Force Western Test Range (AFWTR). Debris objects in space refer to the collection of defunct objects orbiting the Earth. Examples of debris include non-operational satellites, rocket bodies, and fragments generated from explosions, collisions, or faulty payload assembly.

Loading next visibility...
Identifier
10873, 1976-077DB
Orbit
SSO
Country
Flag of USUS
Related business
Manufacturer
Unknown
Mission
Spacecraft
Bus & Motor
Unknown
Mass
Unknown
Launch date (UTC)
1976-07-29 (49 years ago)
Launch vehicle
Unknown
Launch site
Air Force Western Test Range (AFWTR)
Object type
Payload
Rocket body
Debris
Shape & HBR
Unknown shape, 0.1 m
Radar Cross Section
Medium (>0.1 m² and <1 m²)

Expand to show TLE details & history
Last TLE update: 1 day ago

TLE from 1 day ago
0 DELTA 1 DEB
1 10873U 76077DB  25291.82476780 -.00000046  00000-0 -34081-4 0  9999
2 10873 102.1863  62.3549 0140211 226.8077 292.4702 12.13912287182421
Epoch: 2025-10-18T19:47Z
TLE epoch observation values (Epoch: 2025-10-18T19:47:39.937Z)
Latitude
21.70385°
Longitude
-77.20468°
Altitude
1,579.945 km
Speed
7.099 km/s
True Right ascension
16h 29m 02s
True Declination
21° 35' 53"
Sunlit
Object was in daylight at epoch
Visualization orbit readout
Latitude
Unknown
Longitude
Unknown
Altitude
Unknown
Speed
Unknown
Apparent Right ascension
Unknown
Apparent Declination
Unknown
Sunlit
N/A
Visualization observer readout
Local Sidereal Time
15:55:37
Azimuth
Unknown
Elevation
Unknown
Doppler factor
Unknown
Orbital elements
Apogee altitude
1,728.885 km
Perigee altitude
1,504.689 km
Semi-major axis
7,994.924 km
Eccentricity
0.01402
Inclination
102.1863°
RAAN
62.3549°
Arg. of periapsis
226.8077°
True anomaly
290.97564°
Mean anomaly
292.4702°
Eccentric anomaly
291.72391°
Mean motion
3.03614 °/min
Orbital period
118.57 mins
BSTAR
-0.000034081
Loading maneuver chart data...
Computing Atmospheric mass density...
Loading historical data...
Loading historical data...
Loading historical data...
Loading historical data...
Loading historical data...
Loading historical data...
Loading historical data...

Documentation

Showing up to 5 results
|